Location: Gro� Glienicke
(52.4675°N, 13.1079°E)
Time: 17:54:04
(UTC+00:00)

Cosmos 1743 Rocket - Pass Details

Date: 06 July 2020
Orbit: 605 x 631 km, 82.6° (Epoch: 12 August)

Event Time Altitude Azimuth Distance (km) Brightness Sun altitude
Exits shadow 23:29:38 26° 192° (SSW) 1,217 4.5 -14.9°
Maximum altitude 23:32:05 86° 277° (W) 618 3.5 -14.9°
Drops below altitude 10° 23:36:28 10° 10° (N) 1,979 7.6 -14.8°
Sets 23:38:43 0° 11° (N) 2,893 8.9 -14.8°
